Location: Härggis
(46.9540°N, 8.4897°E)
Time: 22:03:28
(UTC+00:00)

MSX - Pass Details

Date: 27 May 2022
Orbit: 896 x 905 km, 98.9° (Epoch: 03 July)

Event Time Altitude Azimuth Distance (km) Brightness Sun altitude
Rises 02:16:54 0° 13° (NNE) 3,535 8.1 -11.3°
Reaches altitude 10° 02:19:19 10° 11° (NNE) 2,591 7.2 -11.1°
Maximum altitude 02:25:05 75° 288° (WNW) 940 3.9 -10.4°
Enters shadow 02:30:46 10° 204° (SSW) 2,561 5.6 -9.8°
